Location: Alpha Ridge Park
(39.3209°N, 76.9128°W)
Time: 08:02:47
(UTC-04:00)

AO-92 - Pass Details

Date: 06 July 2022
Orbit: 469 x 481 km, 97.4° (Epoch: 13 August)

Event Time Altitude Azimuth Distance (km) Brightness Sun altitude
Exits shadow 22:54:50 45° 74° (ENE) 667 ? -20.2°
Drops below altitude 10° 22:58:15 10° 1° (N) 1,667 ? -20.6°
Sets 23:00:23 0° 355° (N) 2,553 ? -20.8°
